Tracking 18840 objects as of 19-November-2017
HD Live streaming from Space Station
objects crossing your sky now

COSMOS 1326

Track COSMOS 1326 now!
10-day predictions
COSMOS 1326 is classified as:


NORAD ID: 12981
Int'l Code: 1981-116G
Perigee: 1,487.5 km
Apogee: 1,618.3 km
Inclination: 74.0 °
Period: 117.0 minutes
Semi major axis: 7923 km
RCS: 0.7022 m2 (medium)
Launch date: November 28, 1981
Source: Commonwealth of Independent States (former USSR) (CIS)
Launch site: PLESETSK MISSILE AND SPACE COMPLEX (PKMTR)
aabbcc
Your satellite tracking list
Your tracking list is empty




NASA's NSSDC Master Catalog

Two Line Element Set (TLE):
1 12981U 81116G   17322.58137163 +.00000001 +00000-0 +13734-3 0  9999
2 12981 073.9848 017.6705 0082566 355.7727 110.8421 12.30817675596727
Source of the keplerian elements: AFSPC